�v������,���O�C��(��),���O���x(��),�Ɠx(lx),��O�J�Z���T�[(1:�~�J),����(m/s)
2024-03-01 00:00:00,9.3,89.2,2,0.0,6
2024-03-01 00:10:00,9.3,87.5,2,0.0,2
2024-03-01 00:20:00,9.6,84.6,2,0.0,3.5
2024-03-01 00:30:00,9.6,84.3,0,0.0,10
2024-03-01 00:40:00,9.7,84.5,2,0.0,7
2024-03-01 00:50:00,9.4,85,2,0.0,4
2024-03-01 01:00:00,9.4,86.6,0,0.0,3
2024-03-01 01:10:00,9.4,88.2,2,0.0,4.5
2024-03-01 01:20:00,8.9,91.6,0,0.0,3
2024-03-01 01:30:00,8.8,94.4,2,0.0,5
2024-03-01 01:40:00,8.7,94.6,2,0.0,3
2024-03-01 01:50:00,8.7,92.3,2,0.0,3.5
2024-03-01 02:00:00,8.8,90.7,2,0.0,4
2024-03-01 02:10:00,9,89.9,2,0.0,4.5
2024-03-01 02:20:00,9.1,89.1,2,0.0,3
2024-03-01 02:30:00,9,88.1,0,0.0,3.5
2024-03-01 02:40:00,9,87.3,0,0.0,4.5
2024-03-01 02:50:00,9.1,86.9,0,0.0,5
2024-03-01 03:00:00,9,86.5,0,0.0,7
2024-03-01 03:10:00,8.9,85.8,0,0.0,6
2024-03-01 03:20:00,8.9,86.9,0,0.0,3
2024-03-01 03:30:00,8.7,86.4,0,0.0,3
2024-03-01 03:40:00,8.9,85.7,0,0.0,3.5
2024-03-01 03:50:00,8.7,84.9,0,0.0,3
2024-03-01 04:00:00,8.9,85.2,0,0.0,3
2024-03-01 04:10:00,8.9,86.1,2,0.0,2
2024-03-01 04:20:00,9.1,86.8,0,0.0,7
2024-03-01 04:30:00,9.1,87,2,0.0,2.5
2024-03-01 04:40:00,8.8,87.4,2,0.0,4
2024-03-01 04:50:00,8.6,90.7,2,0.0,4
2024-03-01 05:00:00,8.4,92.3,2,0.0,2
2024-03-01 05:10:00,8.5,90.5,2,0.0,2
2024-03-01 05:20:00,8.7,89.9,2,0.0,5
2024-03-01 05:30:00,8.6,89.4,0,0.0,2.5
2024-03-01 05:40:00,8.8,88.8,2,0.0,4
2024-03-01 05:50:00,8.5,90.5,2,0.0,5
2024-03-01 06:00:00,8.5,92.4,2,0.0,2
2024-03-01 06:10:00,8.2,95.5,2,1.0,2
2024-03-01 06:20:00,8.3,96.7,2,0.0,2
2024-03-01 06:30:00,8.2,96.1,28,0.0,2.5
2024-03-01 06:40:00,8.2,93.1,212,0.0,3
2024-03-01 06:50:00,8.7,91.5,499.84,0.0,5.5
2024-03-01 07:00:00,8.6,90.6,999.68,0.0,4.5
2024-03-01 07:10:00,8.5,88.3,999.68,0.0,4
2024-03-01 07:20:00,8.7,89,999.68,0.0,3.5
2024-03-01 07:30:00,8.6,91.1,1999.36,0.0,1
2024-03-01 07:40:00,8.6,90.2,3998.72,0.0,5
2024-03-01 07:50:00,8.9,87.9,4999.68,0.0,4
2024-03-01 08:00:00,8.8,87.7,9999.36,0.0,5
2024-03-01 08:10:00,8.9,85.6,4999.68,0.0,3.5
2024-03-01 08:20:00,9.1,84.2,5995.52,0.0,5.5
2024-03-01 08:30:00,9.4,82,7997.44,0.0,3.5
2024-03-01 08:40:00,9.4,79.5,6999.04,0.0,4.5
2024-03-01 08:50:00,9.3,79.7,8995.84,0.0,8
2024-03-01 09:00:00,9.4,80.3,9999.36,0.0,5
2024-03-01 09:10:00,9.4,79.9,10997.8,0.0,4
2024-03-01 09:20:00,9.6,79.5,10997.8,0.0,3
2024-03-01 09:30:00,9.3,78.9,12994.6,0.0,3
2024-03-01 09:40:00,9.5,76.3,14991.4,0.0,5.5
2024-03-01 09:50:00,9.6,76.8,18995.2,0.0,5
2024-03-01 10:00:00,10.2,72.9,37990.4,0.0,3
2024-03-01 10:10:00,10.1,70.7,35983.4,0.0,7
2024-03-01 10:20:00,10.3,70.7,34979.8,0.0,4
2024-03-01 10:30:00,10.5,70.4,34979.8,0.0,6.5
2024-03-01 10:40:00,10.5,70.6,39997.4,0.0,3.5
2024-03-01 10:50:00,10.8,71.1,33996.8,0.0,4.5
2024-03-01 11:00:00,10.7,65.4,31989.8,0.0,4
2024-03-01 11:10:00,10.9,64,31989.8,0.0,7
2024-03-01 11:20:00,11.2,64,30986.2,0.0,6.5
2024-03-01 11:30:00,11.4,60.6,31989.8,0.0,3
2024-03-01 11:40:00,11.6,59.7,37990.4,0.0,5
2024-03-01 11:50:00,11.3,67.7,33484.8,0.0,3
2024-03-01 12:00:00,11.8,56,28999.7,0.0,2
2024-03-01 12:10:00,12,50.9,28999.7,0.0,2.5
2024-03-01 12:20:00,11.8,52.7,29982.7,0.0,4
2024-03-01 12:30:00,11.9,47.5,27996.2,0.0,2
2024-03-01 12:40:00,12.4,49.5,27996.2,0.0,4.5
2024-03-01 12:50:00,12.8,44.9,27996.2,0.0,3
2024-03-01 13:00:00,12.5,44.5,27996.2,0.0,2
2024-03-01 13:10:00,11.8,44.7,26992.6,0.0,6.5
2024-03-01 13:20:00,11.8,46.4,28999.7,0.0,8
2024-03-01 13:30:00,11.8,46.7,25989.1,0.0,5
2024-03-01 13:40:00,12,48.2,27996.2,0.0,3.5
2024-03-01 13:50:00,12.1,47.5,27996.2,0.0,5.5
2024-03-01 14:00:00,11.9,45.8,27996.2,0.0,4
2024-03-01 14:10:00,11.6,47.6,12994.6,0.0,6
2024-03-01 14:20:00,11.4,47.4,13998.1,0.0,4
2024-03-01 14:30:00,11.6,49.1,12994.6,0.0,2
2024-03-01 14:40:00,10.9,48.7,28999.7,0.0,2
2024-03-01 14:50:00,10.7,49.3,13998.1,0.0,3
2024-03-01 15:00:00,10.7,51.3,17489.9,0.0,4
2024-03-01 15:10:00,10.7,51.7,28999.7,0.0,2.5
2024-03-01 15:20:00,10.9,52.3,27996.2,0.0,2
2024-03-01 15:30:00,10.5,54.5,12994.6,0.0,2.5
2024-03-01 15:40:00,10.2,55.9,11991,0.0,1.5
2024-03-01 15:50:00,9.9,56.1,17991.7,0.0,5.5
2024-03-01 16:00:00,9.4,53.9,18493.4,0.0,8
2024-03-01 16:10:00,9.3,52.7,18995.2,0.0,3.5
2024-03-01 16:20:00,9,51.5,14991.4,0.0,4
2024-03-01 16:30:00,8.9,51.6,19998.7,0.0,3
2024-03-01 16:40:00,8.9,54.4,17991.7,0.0,4.5
2024-03-01 16:50:00,8.7,57,16998.4,0.0,8
2024-03-01 17:00:00,8.7,58,14991.4,0.0,4.5
2024-03-01 17:10:00,8.4,58.6,9999.36,0.0,8.5
2024-03-01 17:20:00,8.1,60.3,8995.84,0.0,3
2024-03-01 17:30:00,8.1,59.7,6999.04,0.0,6.5
2024-03-01 17:40:00,7.9,60,2997.76,0.0,5.5
2024-03-01 17:50:00,8,60.1,1999.36,0.0,4.5
2024-03-01 18:00:00,7.7,58.8,999.68,0.0,2
2024-03-01 18:10:00,7.9,52.7,499.84,0.0,3
2024-03-01 18:20:00,7.9,48.9,144,0.0,4
2024-03-01 18:30:00,7.4,53.3,16,0.0,4
2024-03-01 18:40:00,7.1,56.6,2,0.0,9
2024-03-01 18:50:00,7,56.7,2,0.0,3
2024-03-01 19:00:00,7,55,0,0.0,3
2024-03-01 19:10:00,6.6,56.1,2,0.0,2
2024-03-01 19:20:00,6.6,57.7,0,0.0,2
2024-03-01 19:30:00,6.7,56.4,0,0.0,3
2024-03-01 19:40:00,6.5,57.3,0,0.0,3
2024-03-01 19:50:00,6.4,58.6,2,0.0,4
2024-03-01 20:00:00,6.3,57.7,0,0.0,4.5
2024-03-01 20:10:00,6.2,57,0,0.0,2
2024-03-01 20:20:00,6.2,56.8,0,0.0,7
2024-03-01 20:30:00,5.9,57.4,0,0.0,4.5
2024-03-01 20:40:00,6,58.3,2,0.0,3.5
2024-03-01 20:50:00,6.1,57.6,0,0.0,4
2024-03-01 21:00:00,5.9,57.9,0,0.0,2.5
2024-03-01 21:10:00,5.8,57,0,0.0,1
2024-03-01 21:20:00,5.8,59.4,0,0.0,2
2024-03-01 21:30:00,5.7,56,0,0.0,3
2024-03-01 21:40:00,5.6,57.6,0,0.0,4
2024-03-01 21:50:00,5.4,59.7,0,0.0,3
2024-03-01 22:00:00,5.6,62.8,2,0.0,3.5
2024-03-01 22:10:00,5.8,63.2,2,0.0,1
2024-03-01 22:20:00,5.4,63.6,2,0.0,3
2024-03-01 22:30:00,5.5,62.7,2,0.0,3
2024-03-01 22:40:00,5.4,61.1,0,0.0,3
2024-03-01 22:50:00,5.6,60.5,0,0.0,3.5
2024-03-01 23:00:00,5.4,58.8,0,0.0,3.5
2024-03-01 23:10:00,5.7,58.7,0,0.0,3.5
2024-03-01 23:20:00,5.6,57.4,0,0.0,3
2024-03-01 23:30:00,5.5,56.2,0,0.0,2
2024-03-01 23:40:00,5.5,54.1,0,0.0,3
2024-03-01 23:50:00,5.4,53,0,0.0,5
2024-03-02 00:00:00,5.5,53.5,0,0.0,1
2024-03-02 00:10:00,5.5,53.7,0,0.0,2
2024-03-02 00:20:00,5.3,52.8,0,0.0,2
2024-03-02 00:30:00,5.5,52,0,0.0,2.5
2024-03-02 00:40:00,5.2,53.4,0,0.0,1.5
2024-03-02 00:50:00,5.2,55,0,0.0,1.5
2024-03-02 01:00:00,5.3,51.7,0,0.0,2
2024-03-02 01:10:00,5.3,54.8,0,0.0,2
2024-03-02 01:20:00,5.5,53.3,2,0.0,3
2024-03-02 01:30:00,5.3,53.2,0,0.0,3
2024-03-02 01:40:00,5.2,54.9,2,0.0,2
2024-03-02 01:50:00,5.2,58,2,0.0,5.5
2024-03-02 02:00:00,4.5,65.6,2,0.0,2.5
2024-03-02 02:10:00,3.9,72.4,0,0.0,2
2024-03-02 02:20:00,3.6,75.7,0,0.0,3
2024-03-02 02:30:00,3.4,79.6,0,0.0,1.5
2024-03-02 02:40:00,3.6,80.9,0,0.0,2.5
2024-03-02 02:50:00,3.4,80.8,2,0.0,1
2024-03-02 03:00:00,3.3,86.4,0,0.0,2
2024-03-02 03:10:00,3.1,88.2,2,0.0,3
2024-03-02 03:20:00,2.9,89,2,0.0,4
2024-03-02 03:30:00,2.7,89.2,0,0.0,5.5
2024-03-02 03:40:00,2.9,89.9,0,0.0,4.5
2024-03-02 03:50:00,3.1,86.3,0,0.0,2
2024-03-02 04:00:00,3.1,85.1,0,0.0,4.5
2024-03-02 04:10:00,2.8,87,2,0.0,3
2024-03-02 04:20:00,2.6,91.8,0,1.0,2
2024-03-02 04:30:00,2.2,94.1,2,1.0,3
2024-03-02 04:40:00,2.1,93.7,2,1.0,1
2024-03-02 04:50:00,2.2,90,0,0.0,3.5
2024-03-02 05:00:00,2.3,88,0,0.0,1
2024-03-02 05:10:00,2.4,87.4,0,0.0,1
2024-03-02 05:20:00,2.8,78.1,0,0.0,2.5
2024-03-02 05:30:00,2.9,74.1,0,0.0,3
2024-03-02 05:40:00,3,75.1,0,0.0,1.5
2024-03-02 05:50:00,3,76.9,2,0.0,1
2024-03-02 06:00:00,3.1,73.4,2,0.0,3
2024-03-02 06:10:00,3.1,68.9,2,0.0,3.5
2024-03-02 06:20:00,3.1,67.8,12,0.0,3
2024-03-02 06:30:00,3.1,66.5,128,0.0,1.5
2024-03-02 06:40:00,3.1,65.2,440,0.0,3
2024-03-02 06:50:00,3,63.2,999.68,0.0,4
2024-03-02 07:00:00,3.3,63.4,999.68,0.0,1.5
2024-03-02 07:10:00,3,61.2,2997.76,0.0,3.5
2024-03-02 07:20:00,2.9,62.1,7997.44,0.0,2
2024-03-02 07:30:00,3,61.4,17991.7,0.0,4
2024-03-02 07:40:00,3,62.1,42967,0.0,5.5
2024-03-02 07:50:00,3.1,63.6,49971.2,0.0,7
2024-03-02 08:00:00,3,64,50995.2,0.0,3
2024-03-02 08:10:00,3.3,64.2,35983.4,0.0,3
2024-03-02 08:20:00,3,64.1,50995.2,0.0,4.5
2024-03-02 08:30:00,3.3,59.8,50995.2,0.0,5.5
2024-03-02 08:40:00,3.6,58,49971.2,0.0,2
2024-03-02 08:50:00,3.6,55.3,49971.2,0.0,3.5
2024-03-02 09:00:00,3.5,54.3,46981.1,0.0,5
2024-03-02 09:10:00,4.2,53.3,45998.1,0.0,2
2024-03-02 09:20:00,3.9,52.9,43991,0.0,4.5
2024-03-02 09:30:00,4.1,52.2,40980.5,0.0,5.5
2024-03-02 09:40:00,4.2,53.6,38993.9,0.0,5
2024-03-02 09:50:00,4.3,53.6,36986.9,0.0,2.5
2024-03-02 10:00:00,4.5,52.1,37990.4,0.0,2
2024-03-02 10:10:00,4.6,52.7,22999,0.0,2
2024-03-02 10:20:00,4.4,51.4,23982.1,0.0,4
2024-03-02 10:30:00,4.8,49,28999.7,0.0,5.5
2024-03-02 10:40:00,4.9,48.3,31989.8,0.0,4
2024-03-02 10:50:00,4.9,48,30986.2,0.0,2.5
2024-03-02 11:00:00,5,48.1,29982.7,0.0,2
2024-03-02 11:10:00,5.1,45.6,28999.7,0.0,5
2024-03-02 11:20:00,5.5,45.7,28999.7,0.0,6
2024-03-02 11:30:00,5.7,44.2,28999.7,0.0,3.5
2024-03-02 11:40:00,5.4,47.1,27996.2,0.0,9
2024-03-02 11:50:00,6.2,46.8,27996.2,0.0,2
2024-03-02 12:00:00,6.2,48.4,27996.2,0.0,1
2024-03-02 12:10:00,5.9,48.2,17991.7,0.0,5
2024-03-02 12:20:00,6.1,48.2,27996.2,0.0,4
2024-03-02 12:30:00,5.7,48.5,24985.6,0.0,2
2024-03-02 12:40:00,5.5,49.1,15994.9,0.0,2.5
2024-03-02 12:50:00,6,47.6,27484.2,0.0,2.5
2024-03-02 13:00:00,5.8,47.9,22999,0.0,2
2024-03-02 13:10:00,6.2,45,33996.8,0.0,3
2024-03-02 13:20:00,6.4,48.6,32993.3,0.0,2.5
2024-03-02 13:30:00,6.3,47.3,36986.9,0.0,2
2024-03-02 13:40:00,6.3,48.4,24985.6,0.0,4
2024-03-02 13:50:00,6.3,48.4,37990.4,0.0,5.5
2024-03-02 14:00:00,6.5,49.3,32993.3,0.0,2.5
2024-03-02 14:10:00,6.4,47.8,29982.7,0.0,9
2024-03-02 14:20:00,6.6,47.4,28999.7,0.0,2
2024-03-02 14:30:00,6.4,49.4,27996.2,0.0,10.5
2024-03-02 14:40:00,6.8,47.4,28999.7,0.0,3
2024-03-02 14:50:00,6.3,47.4,23490.6,0.0,3
2024-03-02 15:00:00,6.7,46.3,26992.6,0.0,2
2024-03-02 15:10:00,6.6,47.5,27996.2,0.0,6.5
2024-03-02 15:20:00,6.6,47.2,26992.6,0.0,2.5
2024-03-02 15:30:00,6.5,46.6,26992.6,0.0,1.5
2024-03-02 15:40:00,6.4,46.8,26992.6,0.0,3
2024-03-02 15:50:00,6.3,46.7,25989.1,0.0,2
2024-03-02 16:00:00,6.5,48.4,24985.6,0.0,3
2024-03-02 16:10:00,5.9,48.1,23982.1,0.0,4
2024-03-02 16:20:00,6.3,48.9,22999,0.0,1
2024-03-02 16:30:00,6,48.2,21995.5,0.0,2
2024-03-02 16:40:00,6.4,48.4,20992,0.0,3
2024-03-02 16:50:00,6.2,47.5,19998.7,0.0,3.5
2024-03-02 17:00:00,5.9,48.5,17991.7,0.0,1
2024-03-02 17:10:00,5.8,49.6,16998.4,0.0,8
2024-03-02 17:20:00,5.7,49.3,14991.4,0.0,2
2024-03-02 17:30:00,5.5,49.3,13998.1,0.0,1
2024-03-02 17:40:00,5.4,48.4,11991,0.0,4
2024-03-02 17:50:00,5.3,50.2,8995.84,0.0,2
2024-03-02 18:00:00,5.3,51.1,5995.52,0.0,3
2024-03-02 18:10:00,5,51.2,999.68,0.0,3.5
2024-03-02 18:20:00,4.9,52.8,999.68,0.0,4
2024-03-02 18:30:00,4.7,52.7,134,0.0,4
2024-03-02 18:40:00,4.7,52.5,16,0.0,5
2024-03-02 18:50:00,4.6,51.8,2,0.0,1
2024-03-02 19:00:00,4.7,52.8,2,0.0,5
2024-03-02 19:10:00,4.4,50.4,0,0.0,1.5
2024-03-02 19:20:00,4.5,52.3,2,0.0,6
2024-03-02 19:30:00,4.3,51.2,2,0.0,3.5
2024-03-02 19:40:00,4.3,53.1,2,0.0,2
2024-03-02 19:50:00,4.2,52.2,0,0.0,2.5
2024-03-02 20:00:00,4.4,53.2,2,0.0,1.5
2024-03-02 20:10:00,4.2,54.3,0,0.0,1
2024-03-02 20:20:00,4,54.2,0,0.0,3
2024-03-02 20:30:00,4.2,54.2,0,0.0,1
2024-03-02 20:40:00,4,55.3,0,0.0,4.5
2024-03-02 20:50:00,4.2,56.4,0,0.0,3
2024-03-02 21:00:00,4.1,56.3,0,0.0,3.5
2024-03-02 21:10:00,4.2,55.9,0,0.0,2
2024-03-02 21:20:00,3.9,57.3,0,0.0,1
2024-03-02 21:30:00,3.1,63.5,2,0.0,1
2024-03-02 21:40:00,2.5,67.5,0,0.0,1.5
2024-03-02 21:50:00,2.1,69.4,0,0.0,1
2024-03-02 22:00:00,2,71.5,0,0.0,0
2024-03-02 22:10:00,1.7,72.7,0,0.0,1
2024-03-02 22:20:00,1.9,73.6,0,0.0,0
2024-03-02 22:30:00,1.5,74.8,0,0.0,0
2024-03-02 22:40:00,1.3,76.1,0,0.0,1
2024-03-02 22:50:00,1.1,77.4,0,0.0,1
2024-03-02 23:00:00,1,77.9,0,0.0,0
2024-03-02 23:10:00,0.9,78.9,0,0.0,0
2024-03-02 23:20:00,0.9,79.8,0,0.0,0.5
2024-03-02 23:30:00,0.7,80.9,0,0.0,1
2024-03-02 23:40:00,0.2,82.3,0,0.0,1
2024-03-02 23:50:00,0.3,81.9,0,0.0,1
2024-03-03 00:00:00,0.2,81.7,0,0.0,1
2024-03-03 00:10:00,0.1,81.6,0,0.0,0
2024-03-03 00:20:00,0,80.2,0,0.0,1
2024-03-03 00:30:00,0,79.1,0,0.0,0
2024-03-03 00:40:00,0.1,78.6,0,0.0,1.5
2024-03-03 00:50:00,0.2,79,0,0.0,0.5
2024-03-03 01:00:00,0,80.4,0,0.0,1
2024-03-03 01:10:00,-0.3,81.7,0,0.0,1
2024-03-03 01:20:00,-0.5,84.9,0,0.0,1
2024-03-03 01:30:00,-0.4,85.5,0,0.0,1
2024-03-03 01:40:00,-0.3,86.5,0,0.0,1
2024-03-03 01:50:00,-0.5,88.2,0,0.0,1
2024-03-03 02:00:00,-0.5,86.9,0,0.0,2
2024-03-03 02:10:00,-0.8,87.1,0,0.0,2
2024-03-03 02:20:00,-0.7,87.3,0,0.0,1
2024-03-03 02:30:00,-0.9,87,0,0.0,1
2024-03-03 02:40:00,-0.7,86.9,0,0.0,0
2024-03-03 02:50:00,-1,86.4,0,0.0,0
2024-03-03 03:00:00,-1,87.2,0,0.0,1
2024-03-03 03:10:00,-1,88.1,0,0.0,1
2024-03-03 03:20:00,-1.2,87.7,0,0.0,1
2024-03-03 03:30:00,-1.2,88,0,0.0,1
2024-03-03 03:40:00,-1.2,88.6,0,0.0,0
2024-03-03 03:50:00,-1.3,88.7,0,0.0,1.5
2024-03-03 04:00:00,-1.5,89.1,0,0.0,1
2024-03-03 04:10:00,-1.6,87.9,0,0.0,1
2024-03-03 04:20:00,-1.6,88.3,0,0.0,0
2024-03-03 04:30:00,-1.5,88.6,0,0.0,0
2024-03-03 04:40:00,-1.5,88.4,0,0.0,1
2024-03-03 04:50:00,-1.6,88.2,0,0.0,1
2024-03-03 05:00:00,-1.6,88.7,0,0.0,1
2024-03-03 05:10:00,-1.8,87.8,0,0.0,1
2024-03-03 05:20:00,-1.7,88.2,0,0.0,1
2024-03-03 05:30:00,-1.5,89.4,0,0.0,1
2024-03-03 05:40:00,-1.4,87.2,0,0.0,1
2024-03-03 05:50:00,-1.3,86.6,0,0.0,1
2024-03-03 06:00:00,-1.3,86.7,2,0.0,2
2024-03-03 06:10:00,-1.2,86.1,2,0.0,1.5
2024-03-03 06:20:00,-1.4,85.4,20,0.0,1
2024-03-03 06:30:00,-1.2,83.9,221.92,0.0,1
2024-03-03 06:40:00,-1.2,83.6,999.68,0.0,1
2024-03-03 06:50:00,-0.9,81.8,1999.36,0.0,2
2024-03-03 07:00:00,-0.6,77.6,7997.44,0.0,3
2024-03-03 07:10:00,-0.5,77.5,36986.9,0.0,2
2024-03-03 07:20:00,-0.2,77.4,44974.1,0.0,1
2024-03-03 07:30:00,-0.1,76.7,50995.2,0.0,1
2024-03-03 07:40:00,0.2,75.6,54968.3,0.0,0
2024-03-03 07:50:00,0.7,73,55992.3,0.0,1
2024-03-03 08:00:00,1.4,69.7,56975.4,0.0,1
2024-03-03 08:10:00,1.7,69.1,56975.4,0.0,1
2024-03-03 08:20:00,2,70,59965.4,0.0,1.5
2024-03-03 08:30:00,2.9,67.3,18995.2,0.0,2
2024-03-03 08:40:00,3.6,65.3,43991,0.0,2
2024-03-03 08:50:00,4.6,59.2,61972.5,0.0,2
2024-03-03 09:00:00,4.9,58.2,35983.4,0.0,0
2024-03-03 09:10:00,5,57.7,23982.1,0.0,1
2024-03-03 09:20:00,5.1,57,17991.7,0.0,1
2024-03-03 09:30:00,5.5,57.5,46981.1,0.0,1
2024-03-03 09:40:00,6.3,54.2,41984,0.0,2
2024-03-03 09:50:00,7,52.4,37990.4,0.0,1
2024-03-03 10:00:00,7.7,50,35983.4,0.0,1
2024-03-03 10:10:00,8.5,47.3,34979.8,0.0,1
2024-03-03 10:20:00,9.1,44,32993.3,0.0,2
2024-03-03 10:30:00,9.6,43,31989.8,0.0,1
2024-03-03 10:40:00,10.3,41.4,30986.2,0.0,1.5
2024-03-03 10:50:00,9.8,44.6,28999.7,0.0,2
2024-03-03 11:00:00,9.9,49,28999.7,0.0,1
2024-03-03 11:10:00,9.9,44.5,32993.3,0.0,1.5
2024-03-03 11:20:00,9.7,48.3,20992,0.0,1
2024-03-03 11:30:00,9,49.5,19497,0.0,3
2024-03-03 11:40:00,9.5,46.9,25989.1,0.0,1
2024-03-03 11:50:00,9.3,43.7,44974.1,0.0,2
2024-03-03 12:00:00,10.1,43.4,26992.6,0.0,1
2024-03-03 12:10:00,9.6,44.7,18493.4,0.0,1
2024-03-03 12:20:00,9.2,48.7,14991.4,0.0,2
2024-03-03 12:30:00,9.9,49.9,15994.9,0.0,2
2024-03-03 12:40:00,10.4,48.9,20992,0.0,2
2024-03-03 12:50:00,10.4,49.9,18995.2,0.0,5
2024-03-03 13:00:00,10.4,46.6,36986.9,0.0,3.5
2024-03-03 13:10:00,11.1,45.5,34979.8,0.0,2
2024-03-03 13:20:00,10.7,47.5,22999,0.0,2
2024-03-03 13:30:00,10.8,48.5,37498.9,0.0,2
2024-03-03 13:40:00,10.9,47.9,25989.1,0.0,5
2024-03-03 13:50:00,10.1,50.1,20992,0.0,3
2024-03-03 14:00:00,10.4,51,20992,0.0,3
2024-03-03 14:10:00,10.6,51.5,20992,0.0,2
2024-03-03 14:20:00,11,50.1,41492.5,0.0,4
2024-03-03 14:30:00,11.2,48.6,24985.6,0.0,4
2024-03-03 14:40:00,11.5,43.2,23982.1,0.0,4
2024-03-03 14:50:00,11.6,42,29982.7,0.0,4
2024-03-03 15:00:00,11.7,40.2,24494.1,0.0,4.5
2024-03-03 15:10:00,11.7,41.2,21995.5,0.0,3
2024-03-03 15:20:00,11.4,40.8,16998.4,0.0,4
2024-03-03 15:30:00,11.2,42.7,12994.6,0.0,3
2024-03-03 15:40:00,11.3,43.2,12994.6,0.0,2.5
2024-03-03 15:50:00,11.7,43.3,13998.1,0.0,1
2024-03-03 16:00:00,11.4,43.4,9999.36,0.0,1
2024-03-03 16:10:00,11,44.7,8995.84,0.0,1
2024-03-03 16:20:00,11,50.2,7997.44,0.0,1
2024-03-03 16:30:00,10.6,51.6,9999.36,0.0,1
2024-03-03 16:40:00,10.5,53,8995.84,0.0,1
2024-03-03 16:50:00,10.5,51.8,10997.8,0.0,3
2024-03-03 17:00:00,10.7,53.9,15994.9,0.0,3
2024-03-03 17:10:00,10.7,52.1,17991.7,0.0,1
2024-03-03 17:20:00,10.8,49.7,16998.4,0.0,1
2024-03-03 17:30:00,11.4,48,13998.1,0.0,1
2024-03-03 17:40:00,11.4,46.3,11991,0.0,1
2024-03-03 17:50:00,11.5,44.8,7997.44,0.0,1
2024-03-03 18:00:00,11.2,45.5,3998.72,0.0,1
2024-03-03 18:10:00,10.4,47.3,999.68,0.0,1
2024-03-03 18:20:00,10.3,48.6,475.84,0.0,1
2024-03-03 18:30:00,9.8,50.9,76,0.0,1
2024-03-03 18:40:00,10.1,52.1,6,0.0,1
2024-03-03 18:50:00,9.9,52.4,2,0.0,1
2024-03-03 19:00:00,9.5,53.6,2,0.0,1
2024-03-03 19:10:00,9.1,56.3,2,0.0,1
2024-03-03 19:20:00,8.8,57.8,2,0.0,1
2024-03-03 19:30:00,8.4,58.5,2,0.0,1
2024-03-03 19:40:00,8.5,60.7,2,0.0,1
2024-03-03 19:50:00,8.2,60.7,2,0.0,1
2024-03-03 20:00:00,8,60.9,0,0.0,0.5
2024-03-03 20:10:00,8,62.1,0,0.0,2
2024-03-03 20:20:00,8,61.7,0,0.0,2
2024-03-03 20:30:00,7.8,62.5,0,0.0,1
2024-03-03 20:40:00,7.6,64,0,0.0,1
2024-03-03 20:50:00,7.6,64.2,0,0.0,2
2024-03-03 21:00:00,7.4,64.4,0,0.0,1.5
2024-03-03 21:10:00,7.3,65.6,0,0.0,1.5
2024-03-03 21:20:00,7.1,66.3,0,0.0,2
2024-03-03 21:30:00,7.5,63.5,0,0.0,3
2024-03-03 21:40:00,7.7,62.2,0,0.0,2
2024-03-03 21:50:00,7.5,61.9,0,0.0,2
2024-03-03 22:00:00,7.7,62.1,0,0.0,2
2024-03-03 22:10:00,7.7,62.3,0,0.0,2
2024-03-03 22:20:00,7.3,64,0,0.0,2
2024-03-03 22:30:00,7,65.8,0,0.0,1
2024-03-03 22:40:00,6.7,68.1,2,0.0,1
2024-03-03 22:50:00,6.2,70.6,2,0.0,1
2024-03-03 23:00:00,6.2,72.2,2,0.0,1
2024-03-03 23:10:00,5.8,73,0,0.0,1
2024-03-03 23:20:00,5.8,73.8,2,0.0,1
2024-03-03 23:30:00,6.1,74.2,0,0.0,1
2024-03-03 23:40:00,5.7,73.8,0,0.0,2
2024-03-03 23:50:00,5.6,73.7,0,0.0,2
2024-03-04 00:00:00,5.5,74.5,0,0.0,1
2024-03-04 00:10:00,5.2,75.2,0,0.0,2
2024-03-04 00:20:00,5.1,76.4,0,0.0,3
2024-03-04 00:30:00,5.1,79.4,0,0.0,2
2024-03-04 00:40:00,4.7,80.3,0,0.0,1
2024-03-04 00:50:00,4.7,79.8,0,0.0,0.5
2024-03-04 01:00:00,4.9,81.2,0,0.0,2
2024-03-04 01:10:00,4.2,81.6,0,0.0,1
2024-03-04 01:20:00,4.1,82.6,0,0.0,1
2024-03-04 01:30:00,4.2,82.8,0,0.0,1
2024-03-04 01:40:00,4.2,82.5,0,0.0,1
2024-03-04 01:50:00,4.1,82.4,0,0.0,1
2024-03-04 02:00:00,4.2,82.5,0,0.0,1
2024-03-04 02:10:00,4.3,81.6,0,0.0,1
2024-03-04 02:20:00,4.1,81.7,0,0.0,1
2024-03-04 02:30:00,4.2,81.5,0,0.0,1
2024-03-04 02:40:00,3.9,82.4,0,0.0,1
2024-03-04 02:50:00,3.9,83.4,0,0.0,1
2024-03-04 03:00:00,3.8,83.3,0,0.0,1
2024-03-04 03:10:00,3.8,83.7,0,0.0,1
2024-03-04 03:20:00,3.8,83.9,0,0.0,1
2024-03-04 03:30:00,3.5,84.1,0,0.0,0
2024-03-04 03:40:00,3.4,84.4,0,0.0,0
2024-03-04 03:50:00,3.3,84.5,0,0.0,1
2024-03-04 04:00:00,3.3,84.6,0,0.0,1
2024-03-04 04:10:00,3.8,83.8,0,0.0,0
2024-03-04 04:20:00,3.8,83.2,0,0.0,1
2024-03-04 04:30:00,3.9,82.6,0,0.0,1
2024-03-04 04:40:00,3.8,82.3,0,0.0,1
2024-03-04 04:50:00,3.6,82.5,0,0.0,1.5
2024-03-04 05:00:00,3.6,83.4,0,0.0,3
2024-03-04 05:10:00,3.7,83.5,0,0.0,3
2024-03-04 05:20:00,3.3,85.2,0,0.0,2
2024-03-04 05:30:00,3.1,85.6,0,0.0,1
2024-03-04 05:40:00,3.2,86.2,0,0.0,0
2024-03-04 05:50:00,3.3,86.1,0,0.0,1
2024-03-04 06:00:00,3.3,86.3,2,0.0,1
2024-03-04 06:10:00,3.3,87.1,2,0.0,2
2024-03-04 06:20:00,3.4,86.8,20,0.0,1
2024-03-04 06:30:00,3.5,86.7,220,0.0,1
2024-03-04 06:40:00,3.4,86.3,999.68,0.0,0
2024-03-04 06:50:00,3.3,86.6,1999.36,0.0,0
2024-03-04 07:00:00,3.1,87.3,5995.52,0.0,2
2024-03-04 07:10:00,3.6,87.4,14991.4,0.0,1
2024-03-04 07:20:00,3.5,87.1,18995.2,0.0,0
2024-03-04 07:30:00,3.8,86.9,24985.6,0.0,1
2024-03-04 07:40:00,4,86.6,30986.2,0.0,1
2024-03-04 07:50:00,4.3,84,32993.3,0.0,2
2024-03-04 08:00:00,4.9,83,36495.4,0.0,2
2024-03-04 08:10:00,5.3,80.9,29982.7,0.0,1.5
2024-03-04 08:20:00,5.5,78.7,20490.2,0.0,2
2024-03-04 08:30:00,6,77.8,27996.2,0.0,2
2024-03-04 08:40:00,6.2,78,26992.6,0.0,1
2024-03-04 08:50:00,7,76.5,35983.4,0.0,1
2024-03-04 09:00:00,7.5,73.5,36986.9,0.0,1
2024-03-04 09:10:00,7.9,71.2,34979.8,0.0,1
2024-03-04 09:20:00,8.5,69.6,31989.8,0.0,1
2024-03-04 09:30:00,9,67.9,32481.3,0.0,1.5
2024-03-04 09:40:00,9.4,66.4,29982.7,0.0,0.5
2024-03-04 09:50:00,10.3,65,37990.4,0.0,1
2024-03-04 10:00:00,11.1,61.2,30986.2,0.0,1
2024-03-04 10:10:00,11.5,58.6,30986.2,0.0,1
2024-03-04 10:20:00,11.8,55,33996.8,0.0,1
2024-03-04 10:30:00,12,52.5,28999.7,0.0,1
2024-03-04 10:40:00,12.4,51.5,36986.9,0.0,1
2024-03-04 10:50:00,12.5,51.2,33996.8,0.0,2
2024-03-04 11:00:00,12.9,49.5,31989.8,0.0,1.5
2024-03-04 11:10:00,12.8,49.8,33996.8,0.0,3
2024-03-04 11:20:00,12.9,48.4,39997.4,0.0,2
2024-03-04 11:30:00,13.4,49.1,42967,0.0,1
2024-03-04 11:40:00,13.8,47.1,32481.3,0.0,3
2024-03-04 11:50:00,13.9,46.3,34488.3,0.0,1
2024-03-04 12:00:00,13.9,46.4,32993.3,0.0,2
2024-03-04 12:10:00,14.2,46.1,38993.9,0.0,2.5
2024-03-04 12:20:00,13.6,46.9,31989.8,0.0,2
2024-03-04 12:30:00,13.8,49.1,33996.8,0.0,3
2024-03-04 12:40:00,14.1,47.1,29982.7,0.0,2.5
2024-03-04 12:50:00,13.6,49.5,29982.7,0.0,2
2024-03-04 13:00:00,13.1,50.8,22999,0.0,3
2024-03-04 13:10:00,13.7,49,33996.8,0.0,2
2024-03-04 13:20:00,13.9,49,33996.8,0.0,3
2024-03-04 13:30:00,13.7,49.4,29982.7,0.0,3
2024-03-04 13:40:00,13.6,50.2,27996.2,0.0,4
2024-03-04 13:50:00,13.7,51.8,22999,0.0,3
2024-03-04 14:00:00,13.5,52.5,27996.2,0.0,3
2024-03-04 14:10:00,13.5,52.6,29982.7,0.0,4
2024-03-04 14:20:00,13.2,53.3,28999.7,0.0,2
2024-03-04 14:30:00,13.2,51.5,27996.2,0.0,2
2024-03-04 14:40:00,13,52.9,25989.1,0.0,4
2024-03-04 14:50:00,13.2,51.7,27996.2,0.0,4
2024-03-04 15:00:00,13,53.5,26992.6,0.0,3
2024-03-04 15:10:00,13.2,53.8,25989.1,0.0,3
2024-03-04 15:20:00,12.8,53.9,25989.1,0.0,3
2024-03-04 15:30:00,12.6,55,26992.6,0.0,3
2024-03-04 15:40:00,12.9,54.3,25989.1,0.0,2
2024-03-04 15:50:00,12.9,55.5,17991.7,0.0,3
2024-03-04 16:00:00,12.3,56.5,9999.36,0.0,2
2024-03-04 16:10:00,12.1,55.9,10997.8,0.0,3
2024-03-04 16:20:00,12.3,53.8,11991,0.0,1
2024-03-04 16:30:00,12.1,54.8,9999.36,0.0,4
2024-03-04 16:40:00,12.2,54,10997.8,0.0,2
2024-03-04 16:50:00,12.2,54.8,9999.36,0.0,2
2024-03-04 17:00:00,12.1,54.4,7997.44,0.0,2
2024-03-04 17:10:00,12.1,53.1,5995.52,0.0,1
2024-03-04 17:20:00,11.9,53,3998.72,0.0,2
2024-03-04 17:30:00,11.8,54.2,4999.68,0.0,1
2024-03-04 17:40:00,11.8,55.1,3998.72,0.0,1.5
2024-03-04 17:50:00,12,55.9,1999.36,0.0,1
2024-03-04 18:00:00,11.8,56.6,999.68,0.0,1
2024-03-04 18:10:00,11.8,56.8,304,0.0,1
2024-03-04 18:20:00,11.7,57,84,0.0,1
2024-03-04 18:30:00,11.8,56.8,14,0.0,1
2024-03-04 18:40:00,11.7,57,2,0.0,1
2024-03-04 18:50:00,11.5,57.3,2,0.0,1
2024-03-04 19:00:00,11.3,57.8,2,0.0,0
2024-03-04 19:10:00,11.5,57.8,2,0.0,0
2024-03-04 19:20:00,11.7,57.7,2,0.0,1
2024-03-04 19:30:00,11.4,58.4,2,0.0,1
2024-03-04 19:40:00,11.3,59.1,2,0.0,0
2024-03-04 19:50:00,11.5,59.1,2,0.0,0.5
2024-03-04 20:00:00,11.2,60,2,0.0,1
2024-03-04 20:10:00,11.3,60.6,2,0.0,1
2024-03-04 20:20:00,11.4,61.6,2,0.0,1
2024-03-04 20:30:00,11.1,62.7,2,0.0,0
2024-03-04 20:40:00,11.2,64.3,2,0.0,1
2024-03-04 20:50:00,10.9,66.1,2,0.0,1.5
2024-03-04 21:00:00,10.7,67.6,2,0.0,1
2024-03-04 21:10:00,10.8,68.4,2,0.0,1
2024-03-04 21:20:00,10.6,68.1,2,0.0,1
2024-03-04 21:30:00,10.4,67.9,2,0.0,1
2024-03-04 21:40:00,10.4,68.2,2,0.0,0
2024-03-04 21:50:00,10.5,68.8,2,0.0,0
2024-03-04 22:00:00,10.7,70.2,2,1.0,0
2024-03-04 22:10:00,10.6,71.5,2,0.0,0
2024-03-04 22:20:00,10.3,72.6,2,0.0,0
2024-03-04 22:30:00,10.2,74.4,2,0.0,2
2024-03-04 22:40:00,10,76.6,2,0.0,1
2024-03-04 22:50:00,10,77.2,2,0.0,0
2024-03-04 23:00:00,9.9,78.9,2,1.0,0
2024-03-04 23:10:00,9.7,80.6,2,1.0,1
2024-03-04 23:20:00,9.7,83,2,1.0,0.5
2024-03-04 23:30:00,9.6,85.3,2,1.0,1
2024-03-04 23:40:00,9.4,87.7,2,1.0,1
2024-03-04 23:50:00,9.4,88.9,0,1.0,0
2024-03-05 00:00:00,9.2,90.4,2,1.0,1
2024-03-05 00:10:00,9.1,92,2,1.0,1
2024-03-05 00:20:00,8.9,92.9,2,1.0,1
2024-03-05 00:30:00,9.2,93.7,2,1.0,0
2024-03-05 00:40:00,9,94.1,2,1.0,1